Погода в Дауине

Филиппины     9°10′15″N   123°14′44″E
темп.,
°C
ветер,
м/с
пор.,
м/с
влажн.,
%
обл.,
%
осадки,
мм/ч
давл.,
гПа
погр.,
м
28 января, чт
чт2823:00+22св359399 0.0 1009202
02:00+22ссв369299 0.0 1009269
05:00+22ссв3694100 0.0 1009243
08:00+24св4886100 0.0 1011615
11:00+27св467491 0.0 1011822
14:00+27ссв357895 1.9 1009668
17:00+25с3689100 2.9 1009338
20:00+23ссв489390 5.6 1010379
29 января, пт
пт2923:00+23св6119244 2.5 1011562
02:00+22св6119371 4.8 1010604
05:00+22ссв6109360 1.3 1010570
08:00+23св7118961 1.9 1011928
11:00+25св8118292 0.7 10111086
14:00+26св7107196 0.9 10091241
17:00+25св588067 0.1 1008623
20:00+23ссв5109073 0.5 1010545
30 января, сб
сб3023:00+23св6119094 1.1 1011670
02:00+22св7119197 2.5 1010669
05:00+22св61191100 0.4 1010695
08:00+23св81288100 0.8 10121002
11:00+25св9138499 1.0 10111045
14:00+24св8128399 2.8 10101107
17:00+24ссв7128281 0.6 1009935
20:00+23св7128958 1.6 1011728
31 января, вс
вс3123:00+22св7129077 1.3 1012812
02:00+22св7129079 2.1 1011848
05:00+22св7128998 0.6 1011765
08:00+23св8128683 0.8 10121000
11:00+26св7107132 0.1 10121051
14:00+26св787155 0.1 10101044
17:00+24св61084100 0.4 1009750
20:00+23ссв598999 1.1 1011494
1 февраля, пн
пн123:00+23св61188100 0.3 1011693
02:00+23с488793 0.4 1010444
05:00+22с598599 0.0 1010507
08:00+23ссв51084100 0.1 1011861
11:00+25ссв5981100 0.1 1012888
14:00+25ссв51084100 0.8 1009840
17:00+24ссв5890100 1.3 1009567
20:00+23с4791100 2.6 1011338